Time,TemperatureF,DewpointF,PressureIn,WindDirection,WindDirectionDegrees,WindSpeedMPH,WindSpeedGustMPH,Humidity,HourlyPrecipIn,Conditions,Clouds,dailyrainin,SoftwareType,DateUTC
2013-08-20 00:04:00,58.7,31.6,29.93,North,0,0.0,0.0,36,0.00,,,0.00,WUHU216HW,2013-08-20 04:04:00,
2013-08-20 00:09:00,58.5,27.9,29.93,North,0,0.0,0.0,31,0.00,,,0.00,WUHU216HW,2013-08-20 04:09:00,
2013-08-20 00:14:00,58.5,27.9,29.93,North,0,0.0,0.0,31,0.00,,,0.00,WUHU216HW,2013-08-20 04:14:00,
2013-08-20 00:19:00,58.3,29.2,29.93,North,0,0.0,0.0,33,0.00,,,0.00,WUHU216HW,2013-08-20 04:19:00,
2013-08-20 00:24:00,58.1,31.2,29.93,North,0,0.0,0.0,36,0.00,,,0.00,WUHU216HW,2013-08-20 04:24:00,
2013-08-20 00:29:00,58.1,31.2,29.94,North,0,0.0,0.0,36,0.00,,,0.00,WUHU216HW,2013-08-20 04:29:00,
2013-08-20 00:34:00,57.8,30.8,29.93,North,0,0.0,0.0,36,0.00,,,0.00,WUHU216HW,2013-08-20 04:34:00,
2013-08-20 00:39:00,57.8,28.7,29.93,North,0,0.0,0.0,33,0.00,,,0.00,WUHU216HW,2013-08-20 04:39:00,
2013-08-20 00:44:00,57.8,25.7,29.93,North,0,0.0,0.0,29,0.00,,,0.00,WUHU216HW,2013-08-20 04:44:00,
2013-08-20 00:49:00,57.6,21.6,29.94,North,0,0.0,0.0,25,0.00,,,0.00,WUHU216HW,2013-08-20 04:49:00,
2013-08-20 00:54:00,57.6,23.6,29.93,North,0,0.0,0.0,27,0.00,,,0.00,WUHU216HW,2013-08-20 04:54:00,
2013-08-20 00:59:00,57.6,25.5,29.93,North,0,0.0,0.0,29,0.00,,,0.00,WUHU216HW,2013-08-20 04:59:00,
2013-08-20 01:04:00,57.4,25.3,29.93,North,0,0.0,0.0,29,0.00,,,0.00,WUHU216HW,2013-08-20 05:04:00,
2013-08-20 01:09:00,57.2,19.5,29.93,North,0,0.0,0.0,23,0.00,,,0.00,WUHU216HW,2013-08-20 05:09:00,
2013-08-20 01:14:00,57.2,16.6,29.93,North,0,0.0,0.0,20,0.00,,,0.00,WUHU216HW,2013-08-20 05:14:00,
2013-08-20 01:19:00,57.2,4.8,29.94,North,0,0.0,0.0,12,0.00,,,0.00,WUHU216HW,2013-08-20 05:19:00,
2013-08-20 01:24:00,57.2,10.4,29.94,North,0,0.0,0.0,16,0.00,,,0.00,WUHU216HW,2013-08-20 05:24:00,
2013-08-20 01:29:00,57.2,17.6,29.94,North,0,0.0,0.0,21,0.00,,,0.00,WUHU216HW,2013-08-20 05:29:00,
2013-08-20 01:34:00,57.1,20.3,29.94,North,0,0.0,0.0,24,0.00,,,0.00,WUHU216HW,2013-08-20 05:34:00,
2013-08-20 01:39:00,56.9,21.1,29.94,North,0,0.0,0.0,25,0.00,,,0.00,WUHU216HW,2013-08-20 05:39:00,
2013-08-20 01:44:00,56.5,23.6,29.94,North,0,0.0,0.0,28,0.00,,,0.00,WUHU216HW,2013-08-20 05:44:00,
2013-08-20 01:49:00,56.5,24.5,29.94,North,0,0.0,0.0,29,0.00,,,0.00,WUHU216HW,2013-08-20 05:49:00,
2013-08-20 01:54:00,56.5,22.6,29.95,North,0,0.0,0.0,27,0.00,,,0.00,WUHU216HW,2013-08-20 05:54:00,
2013-08-20 01:59:00,56.5,18.8,29.95,North,0,0.0,0.0,23,0.00,,,0.00,WUHU216HW,2013-08-20 05:59:00,
2013-08-20 02:04:00,56.5,18.8,29.95,North,0,0.0,0.0,23,0.00,,,0.00,WUHU216HW,2013-08-20 06:04:00,
2013-08-20 02:09:00,56.3,19.6,29.95,North,0,0.0,0.0,24,0.00,,,0.00,WUHU216HW,2013-08-20 06:09:00,
2013-08-20 02:14:00,56.3,20.5,29.94,North,0,0.0,0.0,25,0.00,,,0.00,WUHU216HW,2013-08-20 06:14:00,
2013-08-20 02:19:00,56.2,23.2,29.94,North,0,0.0,0.0,28,0.00,,,0.00,WUHU216HW,2013-08-20 06:19:00,
2013-08-20 02:24:00,56.2,23.2,29.94,North,0,0.0,0.0,28,0.00,,,0.00,WUHU216HW,2013-08-20 06:24:00,
2013-08-20 02:29:00,55.8,17.3,29.94,North,0,0.0,0.0,22,0.00,,,0.00,WUHU216HW,2013-08-20 06:29:00,
2013-08-20 02:35:00,56.0,12.5,29.95,North,0,0.0,0.0,18,0.00,,,0.00,WUHU216HW,2013-08-20 06:35:00,
2013-08-20 02:40:00,56.0,7.8,29.95,North,0,0.0,0.0,15,0.00,,,0.00,WUHU216HW,2013-08-20 06:40:00,
2013-08-20 02:45:00,56.0,9.5,29.95,North,0,0.0,0.0,16,0.00,,,0.00,WUHU216HW,2013-08-20 06:45:00,
2013-08-20 02:50:00,56.0,6.3,29.95,North,0,0.0,0.0,14,0.00,,,0.00,WUHU216HW,2013-08-20 06:50:00,
2013-08-20 02:55:00,55.8,0.1,29.95,North,0,0.0,0.0,7,0.00,,,0.00,WUHU216HW,2013-08-20 06:55:00,
2013-08-20 03:00:00,55.8,0.1,29.95,North,0,0.0,0.0,7,0.00,,,0.00,WUHU216HW,2013-08-20 07:00:00,
2013-08-20 03:05:00,56.0,0.2,29.95,North,0,0.0,0.0,5,0.00,,,0.00,WUHU216HW,2013-08-20 07:05:00,
2013-08-20 03:10:00,56.0,0.2,29.95,North,0,0.0,0.0,5,0.00,,,0.00,WUHU216HW,2013-08-20 07:10:00,
2013-08-20 03:15:00,56.3,0.5,29.94,North,0,0.0,0.0,3,0.00,,,0.00,WUHU216HW,2013-08-20 07:15:00,
2013-08-20 03:20:00,56.5,0.5,29.94,North,0,0.0,0.0,5,0.00,,,0.00,WUHU216HW,2013-08-20 07:20:00,
2013-08-20 03:25:00,56.5,0.5,29.94,North,0,0.0,0.0,5,0.00,,,0.00,WUHU216HW,2013-08-20 07:25:00,
2013-08-20 03:30:00,56.7,0.7,29.94,North,0,0.0,0.0,5,0.00,,,0.00,WUHU216HW,2013-08-20 07:30:00,
2013-08-20 03:35:00,56.9,0.8,29.94,North,0,0.0,0.0,6,0.00,,,0.00,WUHU216HW,2013-08-20 07:35:00,
2013-08-20 03:40:00,56.9,0.8,29.94,North,0,0.0,0.0,7,0.00,,,0.00,WUHU216HW,2013-08-20 07:40:00,
2013-08-20 03:45:00,57.1,1.0,29.94,North,0,0.0,0.0,8,0.00,,,0.00,WUHU216HW,2013-08-20 07:45:00,
2013-08-20 03:50:00,57.2,1.1,29.95,North,0,0.0,0.0,8,0.00,,,0.00,WUHU216HW,2013-08-20 07:50:00,
2013-08-20 03:55:00,57.2,1.1,29.94,North,0,0.0,0.0,8,0.00,,,0.00,WUHU216HW,2013-08-20 07:55:00,
2013-08-20 04:00:00,57.2,1.1,29.95,North,0,0.0,0.0,8,0.00,,,0.00,WUHU216HW,2013-08-20 08:00:00,
2013-08-20 04:05:00,57.2,1.1,29.95,North,0,0.0,0.0,8,0.00,,,0.00,WUHU216HW,2013-08-20 08:05:00,
2013-08-20 04:10:00,57.4,1.3,29.95,North,0,0.0,0.0,7,0.00,,,0.00,WUHU216HW,2013-08-20 08:10:00,
2013-08-20 04:15:00,57.4,1.3,29.95,North,0,0.0,0.0,7,0.00,,,0.00,WUHU216HW,2013-08-20 08:15:00,
2013-08-20 04:20:00,57.2,1.1,29.95,North,0,0.0,0.0,5,0.00,,,0.00,WUHU216HW,2013-08-20 08:20:00,
2013-08-20 04:25:00,57.4,1.3,29.95,North,0,0.0,0.0,3,0.00,,,0.00,WUHU216HW,2013-08-20 08:25:00,
2013-08-20 04:30:00,57.4,1.3,29.95,North,0,0.0,0.0,2,0.00,,,0.00,WUHU216HW,2013-08-20 08:30:00,
2013-08-20 04:35:00,57.4,1.3,29.95,North,0,0.0,0.0,3,0.00,,,0.00,WUHU216HW,2013-08-20 08:35:00,
2013-08-20 04:40:00,57.6,1.4,29.95,North,0,0.0,0.0,2,0.00,,,0.00,WUHU216HW,2013-08-20 08:40:00,
2013-08-20 04:45:00,57.6,1.4,29.95,North,0,0.0,0.0,3,0.00,,,0.00,WUHU216HW,2013-08-20 08:45:00,
2013-08-20 04:50:00,57.6,1.4,29.95,North,0,0.0,0.0,3,0.00,,,0.00,WUHU216HW,2013-08-20 08:50:00,
2013-08-20 04:55:00,57.6,1.4,29.95,North,0,0.0,0.0,1,0.00,,,0.00,WUHU216HW,2013-08-20 08:55:00,
2013-08-20 05:00:00,57.8,1.5,29.95,North,0,0.0,0.0,1,0.00,,,0.00,WUHU216HW,2013-08-20 09:00:00,
2013-08-20 05:05:00,57.8,1.5,29.96,North,0,0.0,0.0,1,0.00,,,0.00,WUHU216HW,2013-08-20 09:05:00,
2013-08-20 05:10:00,57.8,1.5,29.96,North,0,0.0,0.0,1,0.00,,,0.00,WUHU216HW,2013-08-20 09:10:00,
2013-08-20 05:15:00,57.8,1.5,29.96,North,0,0.0,0.0,1,0.00,,,0.00,WUHU216HW,2013-08-20 09:15:00,
2013-08-20 05:20:00,57.8,1.5,29.96,North,0,0.0,0.0,1,0.00,,,0.00,WUHU216HW,2013-08-20 09:20:00,
2013-08-20 05:26:00,57.6,1.4,29.96,North,0,0.0,0.0,1,0.00,,,0.00,WUHU216HW,2013-08-20 09:26:00,
2013-08-20 05:31:00,57.8,1.5,29.96,North,0,0.0,0.0,1,0.00,,,0.00,WUHU216HW,2013-08-20 09:31:00,
2013-08-20 05:36:00,57.6,1.4,29.97,North,0,0.0,0.0,1,0.00,,,0.00,WUHU216HW,2013-08-20 09:36:00,
2013-08-20 05:41:00,57.6,1.4,29.97,North,0,0.0,0.0,1,0.00,,,0.00,WUHU216HW,2013-08-20 09:41:00,
2013-08-20 05:46:00,57.6,1.4,29.97,North,0,0.0,0.0,1,0.00,,,0.00,WUHU216HW,2013-08-20 09:46:00,
2013-08-20 05:51:00,57.6,1.4,29.97,North,0,0.0,0.0,1,0.00,,,0.00,WUHU216HW,2013-08-20 09:51:00,
2013-08-20 05:56:00,57.6,1.4,29.97,North,0,0.0,0.0,1,0.00,,,0.00,WUHU216HW,2013-08-20 09:56:00,
2013-08-20 06:01:00,57.6,1.4,29.97,North,0,0.0,0.0,1,0.00,,,0.00,WUHU216HW,2013-08-20 10:01:00,
2013-08-20 06:06:00,57.8,1.5,29.97,North,0,0.0,0.0,1,0.00,,,0.00,WUHU216HW,2013-08-20 10:06:00,
2013-08-20 06:11:00,57.6,1.4,29.97,North,0,0.0,0.0,1,0.00,,,0.00,WUHU216HW,2013-08-20 10:11:00,
2013-08-20 06:16:00,57.6,1.4,29.97,North,0,0.0,0.0,1,0.00,,,0.00,WUHU216HW,2013-08-20 10:16:00,
2013-08-20 06:21:00,57.6,1.4,29.98,North,0,0.0,0.0,1,0.00,,,0.00,WUHU216HW,2013-08-20 10:21:00,
2013-08-20 06:26:00,57.6,1.4,29.98,North,0,0.0,0.0,1,0.00,,,0.00,WUHU216HW,2013-08-20 10:26:00,
2013-08-20 06:31:00,57.8,1.5,29.98,North,0,0.0,0.0,1,0.00,,,0.00,WUHU216HW,2013-08-20 10:31:00,
2013-08-20 06:36:00,57.8,1.5,29.97,North,0,0.0,0.0,1,0.00,,,0.00,WUHU216HW,2013-08-20 10:36:00,
2013-08-20 06:41:00,57.8,1.5,29.97,North,0,0.0,0.0,1,0.00,,,0.00,WUHU216HW,2013-08-20 10:41:00,
2013-08-20 06:46:00,57.8,1.5,29.97,North,0,0.0,0.0,1,0.00,,,0.00,WUHU216HW,2013-08-20 10:46:00,
2013-08-20 06:51:00,58.0,1.6,29.97,North,0,0.0,0.0,1,0.00,,,0.00,WUHU216HW,2013-08-20 10:51:00,
2013-08-20 06:56:00,58.0,1.6,29.98,North,0,0.0,0.0,1,0.00,,,0.00,WUHU216HW,2013-08-20 10:56:00,
2013-08-20 07:01:00,58.0,1.6,29.98,North,0,0.0,0.0,1,0.00,,,0.00,WUHU216HW,2013-08-20 11:01:00,
2013-08-20 07:06:00,58.1,1.8,29.98,North,0,0.0,0.0,1,0.00,,,0.00,WUHU216HW,2013-08-20 11:06:00,
2013-08-20 07:11:00,58.3,2.0,29.99,North,0,0.0,0.0,1,0.00,,,0.00,WUHU216HW,2013-08-20 11:11:00,
2013-08-20 07:16:00,58.3,2.0,29.99,North,0,0.0,0.0,1,0.00,,,0.00,WUHU216HW,2013-08-20 11:16:00,
2013-08-20 07:21:00,58.7,2.3,29.99,North,0,0.0,0.0,1,0.00,,,0.00,WUHU216HW,2013-08-20 11:21:00,
2013-08-20 07:26:00,59.0,2.5,29.99,North,0,0.0,0.0,1,0.00,,,0.00,WUHU216HW,2013-08-20 11:26:00,
2013-08-20 07:31:00,59.0,2.5,29.99,North,0,0.0,0.0,1,0.00,,,0.00,WUHU216HW,2013-08-20 11:31:00,
2013-08-20 07:36:00,59.0,2.5,29.99,North,0,0.0,0.0,1,0.00,,,0.00,WUHU216HW,2013-08-20 11:36:00,
2013-08-20 07:41:00,59.4,2.8,29.99,North,0,0.0,0.0,1,0.00,,,0.00,WUHU216HW,2013-08-20 11:41:00,
2013-08-20 07:46:00,59.4,2.8,30.00,North,0,0.0,0.0,1,0.00,,,0.00,WUHU216HW,2013-08-20 11:46:00,
2013-08-20 07:51:00,59.8,3.1,29.99,North,0,0.0,0.0,1,0.00,,,0.00,WUHU216HW,2013-08-20 11:51:00,
2013-08-20 07:56:00,60.1,3.4,29.99,North,0,0.0,0.0,1,0.00,,,0.00,WUHU216HW,2013-08-20 11:56:00,
2013-08-20 08:01:00,60.1,3.4,30.00,North,0,0.0,0.0,1,0.00,,,0.00,WUHU216HW,2013-08-20 12:01:00,
2013-08-20 08:06:00,60.1,3.4,30.00,North,0,0.0,0.0,1,0.00,,,0.00,WUHU216HW,2013-08-20 12:06:00,
2013-08-20 08:11:00,60.3,3.5,30.00,North,0,0.0,0.0,1,0.00,,,0.00,WUHU216HW,2013-08-20 12:11:00,
2013-08-20 08:16:00,61.2,4.2,30.00,North,0,0.0,0.0,2,0.00,,,0.00,WUHU216HW,2013-08-20 12:16:00,
2013-08-20 08:21:00,61.6,9.3,30.00,North,0,0.0,0.0,13,0.00,,,0.00,WUHU216HW,2013-08-20 12:21:00,
2013-08-20 08:26:00,61.7,14.0,30.00,North,0,0.0,0.0,16,0.00,,,0.00,WUHU216HW,2013-08-20 12:26:00,
2013-08-20 08:31:00,62.3,24.9,30.01,North,0,0.0,0.0,24,0.00,,,0.00,WUHU216HW,2013-08-20 12:31:00,
2013-08-20 08:36:00,62.3,28.5,30.01,North,0,0.0,0.0,28,0.00,,,0.00,WUHU216HW,2013-08-20 12:36:00,
2013-08-20 08:41:00,62.3,31.9,30.01,North,0,0.0,0.0,32,0.00,,,0.00,WUHU216HW,2013-08-20 12:41:00,
2013-08-20 08:46:00,62.3,33.3,30.01,North,0,0.0,0.0,34,0.00,,,0.00,WUHU216HW,2013-08-20 12:46:00,
2013-08-20 08:51:00,62.5,33.5,30.01,North,0,0.0,0.0,34,0.00,,,0.00,WUHU216HW,2013-08-20 12:51:00,
2013-08-20 08:57:00,63.0,32.6,30.01,North,0,0.0,0.0,32,0.00,,,0.00,WUHU216HW,2013-08-20 12:57:00,
2013-08-20 09:02:00,63.0,41.2,30.00,North,0,0.0,0.0,45,0.00,,,0.00,WUHU216HW,2013-08-20 13:02:00,
2013-08-20 09:07:00,63.0,40.1,30.01,North,0,0.0,0.0,43,0.00,,,0.00,WUHU216HW,2013-08-20 13:07:00,
2013-08-20 09:12:00,63.7,38.3,30.01,North,0,0.0,0.0,39,0.00,,,0.00,WUHU216HW,2013-08-20 13:12:00,
2013-08-20 09:17:00,64.4,45.8,30.01,North,0,0.0,0.0,51,0.00,,,0.00,WUHU216HW,2013-08-20 13:17:00,
2013-08-20 09:22:00,65.2,43.7,30.01,North,0,0.0,0.0,46,0.00,,,0.00,WUHU216HW,2013-08-20 13:22:00,
2013-08-20 09:27:00,65.7,44.3,30.00,North,0,0.0,0.0,46,0.00,,,0.00,WUHU216HW,2013-08-20 13:27:00,
2013-08-20 09:32:00,66.6,53.2,30.01,North,0,0.0,0.0,62,0.00,,,0.00,WUHU216HW,2013-08-20 13:32:00,
2013-08-20 09:37:00,66.4,53.5,30.01,North,0,0.0,0.0,63,0.00,,,0.00,WUHU216HW,2013-08-20 13:37:00,
2013-08-20 09:42:00,66.6,52.7,30.01,North,0,0.0,0.0,61,0.00,,,0.00,WUHU216HW,2013-08-20 13:42:00,
2013-08-20 09:47:00,67.3,52.5,30.00,North,0,0.0,0.0,59,0.00,,,0.00,WUHU216HW,2013-08-20 13:47:00,
2013-08-20 09:52:00,68.4,55.7,30.00,North,0,0.0,0.0,64,0.00,,,0.00,WUHU216HW,2013-08-20 13:52:00,
2013-08-20 09:57:00,68.6,56.7,30.00,North,0,0.0,0.0,66,0.00,,,0.00,WUHU216HW,2013-08-20 13:57:00,
2013-08-20 10:02:00,69.5,57.6,30.00,North,0,0.0,0.0,66,0.00,,,0.00,WUHU216HW,2013-08-20 14:02:00,
2013-08-20 10:07:00,69.8,58.3,30.00,North,0,0.0,0.0,67,0.00,,,0.00,WUHU216HW,2013-08-20 14:07:00,
2013-08-20 10:12:00,70.6,59.1,29.99,North,0,0.0,0.0,67,0.00,,,0.00,WUHU216HW,2013-08-20 14:12:00,
2013-08-20 10:17:00,71.3,59.8,30.00,North,0,0.0,0.0,67,0.00,,,0.00,WUHU216HW,2013-08-20 14:17:00,
2013-08-20 10:22:00,72.0,61.3,30.00,North,0,0.0,0.0,69,0.00,,,0.00,WUHU216HW,2013-08-20 14:22:00,
2013-08-20 10:27:00,73.1,62.4,29.99,North,0,0.0,0.0,69,0.00,,,0.00,WUHU216HW,2013-08-20 14:27:00,
2013-08-20 10:32:00,73.6,63.4,30.00,North,0,0.0,0.0,70,0.00,,,0.00,WUHU216HW,2013-08-20 14:32:00,
2013-08-20 10:37:00,74.0,63.6,30.00,North,0,0.0,0.0,70,0.00,,,0.00,WUHU216HW,2013-08-20 14:37:00,
2013-08-20 10:42:00,74.5,64.2,29.99,North,0,0.0,0.0,70,0.00,,,0.00,WUHU216HW,2013-08-20 14:42:00,
2013-08-20 10:47:00,76.0,65.5,29.99,North,0,0.0,0.0,70,0.00,,,0.00,WUHU216HW,2013-08-20 14:47:00,
2013-08-20 10:52:00,76.5,66.1,29.99,North,0,0.0,0.0,70,0.00,,,0.00,WUHU216HW,2013-08-20 14:52:00,
2013-08-20 10:57:00,76.7,65.3,29.99,North,0,0.0,0.0,68,0.00,,,0.00,WUHU216HW,2013-08-20 14:57:00,
2013-08-20 11:02:00,76.7,66.2,29.99,North,0,0.0,0.0,70,0.00,,,0.00,WUHU216HW,2013-08-20 15:02:00,
2013-08-20 11:07:00,76.9,66.4,29.99,North,0,0.0,0.0,70,0.00,,,0.00,WUHU216HW,2013-08-20 15:07:00,
2013-08-20 11:12:00,77.2,66.3,29.99,North,0,0.0,0.0,69,0.00,,,0.00,WUHU216HW,2013-08-20 15:12:00,
2013-08-20 11:17:00,78.1,67.2,29.99,North,0,0.0,0.0,69,0.00,,,0.00,WUHU216HW,2013-08-20 15:17:00,
2013-08-20 11:22:00,78.5,67.1,29.99,North,0,0.0,0.0,68,0.00,,,0.00,WUHU216HW,2013-08-20 15:22:00,
2013-08-20 11:27:00,79.0,67.2,29.99,North,0,0.0,0.0,67,0.00,,,0.00,WUHU216HW,2013-08-20 15:27:00,
2013-08-20 11:32:00,79.6,67.1,29.99,North,0,0.0,0.0,66,0.00,,,0.00,WUHU216HW,2013-08-20 15:32:00,
2013-08-20 11:37:00,79.7,67.3,29.99,North,0,0.0,0.0,66,0.00,,,0.00,WUHU216HW,2013-08-20 15:37:00,
2013-08-20 11:42:00,80.5,68.0,29.99,North,0,0.0,0.0,66,0.00,,,0.00,WUHU216HW,2013-08-20 15:42:00,
2013-08-20 11:47:00,80.6,68.2,29.99,North,0,0.0,0.0,66,0.00,,,0.00,WUHU216HW,2013-08-20 15:47:00,
2013-08-20 11:52:00,81.2,68.2,29.99,North,0,0.0,0.0,65,0.00,,,0.00,WUHU216HW,2013-08-20 15:52:00,
2013-08-20 11:58:00,81.4,68.4,29.98,North,0,0.0,0.0,65,0.00,,,0.00,WUHU216HW,2013-08-20 15:58:00,
2013-08-20 12:03:00,81.4,66.6,29.99,North,0,0.0,0.0,61,0.00,,,0.00,WUHU216HW,2013-08-20 16:03:00,
2013-08-20 12:08:00,81.7,67.4,29.98,North,0,0.0,0.0,62,0.00,,,0.00,WUHU216HW,2013-08-20 16:08:00,
2013-08-20 12:13:00,81.7,66.0,29.98,North,0,0.0,0.0,59,0.00,,,0.00,WUHU216HW,2013-08-20 16:13:00,
2013-08-20 12:18:00,82.1,67.2,29.98,North,0,0.0,0.0,61,0.00,,,0.00,WUHU216HW,2013-08-20 16:18:00,
2013-08-20 12:23:00,82.4,68.0,29.98,North,0,0.0,0.0,62,0.00,,,0.00,WUHU216HW,2013-08-20 16:23:00,
2013-08-20 12:28:00,81.7,66.5,29.98,North,0,0.0,0.0,60,0.00,,,0.00,WUHU216HW,2013-08-20 16:28:00,
2013-08-20 12:33:00,82.1,67.2,29.98,North,0,0.0,0.0,61,0.00,,,0.00,WUHU216HW,2013-08-20 16:33:00,
2013-08-20 12:38:00,82.3,67.4,29.98,North,0,0.0,0.0,61,0.00,,,0.00,WUHU216HW,2013-08-20 16:38:00,
2013-08-20 12:43:00,82.8,68.4,29.98,North,0,0.0,0.0,62,0.00,,,0.00,WUHU216HW,2013-08-20 16:43:00,
2013-08-20 12:48:00,82.8,63.4,29.97,North,0,0.0,0.0,52,0.00,,,0.00,WUHU216HW,2013-08-20 16:48:00,
2013-08-20 12:53:00,82.8,64.9,29.97,North,0,0.0,0.0,55,0.00,,,0.00,WUHU216HW,2013-08-20 16:53:00,
2013-08-20 12:58:00,83.5,68.2,29.98,North,0,0.0,0.0,60,0.00,,,0.00,WUHU216HW,2013-08-20 16:58:00,
2013-08-20 13:03:00,83.5,67.1,29.97,North,0,0.0,0.0,58,0.00,,,0.00,WUHU216HW,2013-08-20 17:03:00,
2013-08-20 13:08:00,83.2,66.8,29.97,North,0,0.0,0.0,58,0.00,,,0.00,WUHU216HW,2013-08-20 17:08:00,
2013-08-20 13:13:00,82.8,62.8,29.97,North,0,0.0,0.0,51,0.00,,,0.00,WUHU216HW,2013-08-20 17:13:00,
2013-08-20 13:18:00,83.0,63.0,29.97,North,0,0.0,0.0,51,0.00,,,0.00,WUHU216HW,2013-08-20 17:18:00,
2013-08-20 13:23:00,83.2,65.3,29.97,North,0,0.0,0.0,55,0.00,,,0.00,WUHU216HW,2013-08-20 17:23:00,
2013-08-20 13:28:00,83.7,65.3,29.97,North,0,0.0,0.0,54,0.00,,,0.00,WUHU216HW,2013-08-20 17:28:00,
2013-08-20 13:33:00,84.2,67.4,29.97,North,0,0.0,0.0,57,0.00,,,0.00,WUHU216HW,2013-08-20 17:33:00,
2013-08-20 13:38:00,84.4,68.0,29.97,North,0,0.0,0.0,58,0.00,,,0.00,WUHU216HW,2013-08-20 17:38:00,
2013-08-20 13:43:00,83.9,62.1,29.97,North,0,0.0,0.0,48,0.00,,,0.00,WUHU216HW,2013-08-20 17:43:00,
2013-08-20 13:48:00,83.7,61.9,29.97,North,0,0.0,0.0,48,0.00,,,0.00,WUHU216HW,2013-08-20 17:48:00,
2013-08-20 13:54:00,84.4,65.4,29.97,North,0,0.0,0.0,53,0.00,,,0.00,WUHU216HW,2013-08-20 17:54:00,
2013-08-20 13:59:00,84.8,64.7,29.97,North,0,0.0,0.0,51,0.00,,,0.00,WUHU216HW,2013-08-20 17:59:00,
2013-08-20 14:04:00,85.1,62.6,29.97,North,0,0.0,0.0,47,0.00,,,0.00,WUHU216HW,2013-08-20 18:04:00,
2013-08-20 14:09:00,85.1,65.1,29.97,North,0,0.0,0.0,51,0.00,,,0.00,WUHU216HW,2013-08-20 18:09:00,
2013-08-20 14:14:00,85.0,61.8,29.97,North,0,0.0,0.0,46,0.00,,,0.00,WUHU216HW,2013-08-20 18:14:00,
2013-08-20 14:19:00,85.0,64.4,29.97,North,0,0.0,0.0,50,0.00,,,0.00,WUHU216HW,2013-08-20 18:19:00,
2013-08-20 14:24:00,84.8,63.5,29.97,North,0,0.0,0.0,49,0.00,,,0.00,WUHU216HW,2013-08-20 18:24:00,
2013-08-20 14:29:00,84.8,64.2,29.96,North,0,0.0,0.0,50,0.00,,,0.00,WUHU216HW,2013-08-20 18:29:00,
2013-08-20 14:34:00,84.8,64.2,29.96,North,0,0.0,0.0,50,0.00,,,0.00,WUHU216HW,2013-08-20 18:34:00,
2013-08-20 14:39:00,84.8,65.3,29.96,North,0,0.0,0.0,52,0.00,,,0.00,WUHU216HW,2013-08-20 18:39:00,
2013-08-20 14:44:00,84.6,64.1,29.96,North,0,0.0,0.0,50,0.00,,,0.00,WUHU216HW,2013-08-20 18:44:00,
2013-08-20 14:49:00,84.2,64.3,29.96,North,0,0.0,0.0,51,0.00,,,0.00,WUHU216HW,2013-08-20 18:49:00,
2013-08-20 14:54:00,84.1,65.6,29.96,North,0,0.0,0.0,54,0.00,,,0.00,WUHU216HW,2013-08-20 18:54:00,
2013-08-20 14:59:00,83.9,62.7,29.96,North,0,0.0,0.0,49,0.00,,,0.00,WUHU216HW,2013-08-20 18:59:00,
2013-08-20 15:04:00,84.2,65.3,29.96,North,0,0.0,0.0,53,0.00,,,0.00,WUHU216HW,2013-08-20 19:04:00,
2013-08-20 15:09:00,84.6,66.2,29.96,North,0,0.0,0.0,54,0.00,,,0.00,WUHU216HW,2013-08-20 19:09:00,
2013-08-20 15:14:00,84.4,63.3,29.96,North,0,0.0,0.0,49,0.00,,,0.00,WUHU216HW,2013-08-20 19:14:00,
2013-08-20 15:19:00,84.4,66.5,29.96,North,0,0.0,0.0,55,0.00,,,0.00,WUHU216HW,2013-08-20 19:19:00,
2013-08-20 15:24:00,84.6,67.7,29.96,North,0,0.0,0.0,57,0.00,,,0.00,WUHU216HW,2013-08-20 19:24:00,
2013-08-20 15:29:00,84.4,66.5,29.96,North,0,0.0,0.0,55,0.00,,,0.00,WUHU216HW,2013-08-20 19:29:00,
2013-08-20 15:34:00,84.2,65.8,29.96,North,0,0.0,0.0,54,0.00,,,0.00,WUHU216HW,2013-08-20 19:34:00,
2013-08-20 15:39:00,84.4,66.5,29.96,North,0,0.0,0.0,55,0.00,,,0.00,WUHU216HW,2013-08-20 19:39:00,
2013-08-20 15:44:00,83.3,63.9,29.96,North,0,0.0,0.0,52,0.00,,,0.00,WUHU216HW,2013-08-20 19:44:00,
2013-08-20 15:49:00,83.5,63.6,29.96,North,0,0.0,0.0,51,0.00,,,0.00,WUHU216HW,2013-08-20 19:49:00,
2013-08-20 15:54:00,83.9,66.0,29.97,North,0,0.0,0.0,55,0.00,,,0.00,WUHU216HW,2013-08-20 19:54:00,
2013-08-20 15:59:00,82.6,64.2,29.96,North,0,0.0,0.0,54,0.00,,,0.00,WUHU216HW,2013-08-20 19:59:00,
2013-08-20 16:04:00,82.4,65.1,29.96,North,0,0.0,0.0,56,0.00,,,0.00,WUHU216HW,2013-08-20 20:04:00,
2013-08-20 16:10:00,82.3,64.9,29.97,North,0,0.0,0.0,56,0.00,,,0.00,WUHU216HW,2013-08-20 20:10:00,
2013-08-20 16:15:00,81.7,65.4,29.96,North,0,0.0,0.0,58,0.00,,,0.00,WUHU216HW,2013-08-20 20:15:00,
2013-08-20 16:20:00,81.7,65.4,29.97,North,0,0.0,0.0,58,0.00,,,0.00,WUHU216HW,2013-08-20 20:20:00,
2013-08-20 16:25:00,81.9,65.6,29.96,North,0,0.0,0.0,58,0.00,,,0.00,WUHU216HW,2013-08-20 20:25:00,
2013-08-20 16:30:00,81.7,65.4,29.96,North,0,0.0,0.0,58,0.00,,,0.00,WUHU216HW,2013-08-20 20:30:00,
2013-08-20 16:35:00,81.7,66.0,29.96,North,0,0.0,0.0,59,0.00,,,0.00,WUHU216HW,2013-08-20 20:35:00,
2013-08-20 16:40:00,81.9,66.2,29.96,North,0,0.0,0.0,59,0.00,,,0.00,WUHU216HW,2013-08-20 20:40:00,
2013-08-20 16:45:00,82.1,66.3,29.96,North,0,0.0,0.0,59,0.00,,,0.00,WUHU216HW,2013-08-20 20:45:00,
2013-08-20 16:50:00,82.3,66.4,29.96,North,0,0.0,0.0,59,0.00,,,0.00,WUHU216HW,2013-08-20 20:50:00,
2013-08-20 16:55:00,81.9,66.7,29.96,North,0,0.0,0.0,60,0.00,,,0.00,WUHU216HW,2013-08-20 20:55:00,
2013-08-20 17:00:00,81.0,65.9,29.96,North,0,0.0,0.0,60,0.00,,,0.00,WUHU216HW,2013-08-20 21:00:00,
2013-08-20 17:05:00,80.3,65.6,29.96,North,0,0.0,0.0,61,0.00,,,0.00,WUHU216HW,2013-08-20 21:05:00,
2013-08-20 17:10:00,80.1,65.9,29.96,North,0,0.0,0.0,62,0.00,,,0.00,WUHU216HW,2013-08-20 21:10:00,
2013-08-20 17:15:00,80.1,65.9,29.96,North,0,0.0,0.0,62,0.00,,,0.00,WUHU216HW,2013-08-20 21:15:00,
2013-08-20 17:20:00,79.9,65.8,29.97,North,0,0.0,0.0,62,0.00,,,0.00,WUHU216HW,2013-08-20 21:20:00,
2013-08-20 17:25:00,79.2,65.5,29.97,North,0,0.0,0.0,63,0.00,,,0.00,WUHU216HW,2013-08-20 21:25:00,
2013-08-20 17:30:00,79.2,66.0,29.97,North,0,0.0,0.0,64,0.00,,,0.00,WUHU216HW,2013-08-20 21:30:00,
2013-08-20 17:35:00,79.0,65.3,29.97,North,0,0.0,0.0,63,0.00,,,0.00,WUHU216HW,2013-08-20 21:35:00,
2013-08-20 17:40:00,78.8,65.2,29.97,North,0,0.0,0.0,63,0.00,,,0.00,WUHU216HW,2013-08-20 21:40:00,
2013-08-20 17:45:00,78.5,64.9,29.97,North,0,0.0,0.0,63,0.00,,,0.00,WUHU216HW,2013-08-20 21:45:00,
2013-08-20 17:50:00,78.1,65.0,29.97,North,0,0.0,0.0,64,0.00,,,0.00,WUHU216HW,2013-08-20 21:50:00,
2013-08-20 17:55:00,77.8,64.6,29.97,North,0,0.0,0.0,64,0.00,,,0.00,WUHU216HW,2013-08-20 21:55:00,
2013-08-20 18:00:00,77.4,64.7,29.97,North,0,0.0,0.0,65,0.00,,,0.00,WUHU216HW,2013-08-20 22:00:00,
2013-08-20 18:05:00,77.0,64.8,29.97,North,0,0.0,0.0,66,0.00,,,0.00,WUHU216HW,2013-08-20 22:05:00,
2013-08-20 18:10:00,76.1,64.8,29.97,North,0,0.0,0.0,68,0.00,,,0.00,WUHU216HW,2013-08-20 22:10:00,
2013-08-20 18:15:00,76.0,65.1,29.96,North,0,0.0,0.0,69,0.00,,,0.00,WUHU216HW,2013-08-20 22:15:00,
2013-08-20 18:20:00,75.8,65.3,29.96,North,0,0.0,0.0,70,0.00,,,0.00,WUHU216HW,2013-08-20 22:20:00,
2013-08-20 18:25:00,75.4,65.0,29.96,North,0,0.0,0.0,70,0.00,,,0.00,WUHU216HW,2013-08-20 22:25:00,
2013-08-20 18:30:00,75.2,64.8,29.97,North,0,0.0,0.0,70,0.00,,,0.00,WUHU216HW,2013-08-20 22:30:00,
2013-08-20 18:35:00,74.9,64.9,29.97,North,0,0.0,0.0,71,0.00,,,0.00,WUHU216HW,2013-08-20 22:35:00,
2013-08-20 18:40:00,74.3,64.4,29.97,North,0,0.0,0.0,71,0.00,,,0.00,WUHU216HW,2013-08-20 22:40:00,
2013-08-20 18:45:00,74.2,64.2,29.97,North,0,0.0,0.0,71,0.00,,,0.00,WUHU216HW,2013-08-20 22:45:00,
2013-08-20 18:50:00,74.2,64.2,29.97,North,0,0.0,0.0,71,0.00,,,0.00,WUHU216HW,2013-08-20 22:50:00,
2013-08-20 18:55:00,73.8,63.9,29.97,North,0,0.0,0.0,71,0.00,,,0.00,WUHU216HW,2013-08-20 22:55:00,
2013-08-20 19:00:00,73.6,63.7,29.97,North,0,0.0,0.0,71,0.00,,,0.00,WUHU216HW,2013-08-20 23:00:00,
2013-08-20 19:05:00,73.4,63.5,29.97,North,0,0.0,0.0,71,0.00,,,0.00,WUHU216HW,2013-08-20 23:05:00,
2013-08-20 19:10:00,73.1,63.2,29.97,North,0,0.0,0.0,71,0.00,,,0.00,WUHU216HW,2013-08-20 23:10:00,
2013-08-20 19:15:00,72.5,63.0,29.97,North,0,0.0,0.0,72,0.00,,,0.00,WUHU216HW,2013-08-20 23:15:00,
2013-08-20 19:20:00,72.0,62.1,29.98,North,0,0.0,0.0,71,0.00,,,0.00,WUHU216HW,2013-08-20 23:20:00,
2013-08-20 19:25:00,71.3,61.4,29.98,North,0,0.0,0.0,71,0.00,,,0.00,WUHU216HW,2013-08-20 23:25:00,
2013-08-20 19:30:00,70.9,61.0,29.98,North,0,0.0,0.0,71,0.00,,,0.00,WUHU216HW,2013-08-20 23:30:00,
2013-08-20 19:35:00,70.6,60.3,29.98,North,0,0.0,0.0,70,0.00,,,0.00,WUHU216HW,2013-08-20 23:35:00,
2013-08-20 19:40:00,70.6,60.3,29.98,North,0,0.0,0.0,70,0.00,,,0.00,WUHU216HW,2013-08-20 23:40:00,
2013-08-20 19:45:00,70.0,59.8,29.98,North,0,0.0,0.0,70,0.00,,,0.00,WUHU216HW,2013-08-20 23:45:00,
2013-08-20 19:50:00,69.5,58.9,29.98,North,0,0.0,0.0,69,0.00,,,0.00,WUHU216HW,2013-08-20 23:50:00,
2013-08-20 19:55:00,69.1,57.7,29.98,North,0,0.0,0.0,67,0.00,,,0.00,WUHU216HW,2013-08-20 23:55:00,
2013-08-20 20:00:00,68.9,57.5,29.98,North,0,0.0,0.0,67,0.00,,,0.00,WUHU216HW,2013-08-21 00:00:00,
2013-08-20 20:05:00,68.8,57.3,29.98,North,0,0.0,0.0,67,0.00,,,0.00,WUHU216HW,2013-08-21 00:05:00,
2013-08-20 20:10:00,68.6,57.6,29.98,North,0,0.0,0.0,68,0.00,,,0.00,WUHU216HW,2013-08-21 00:10:00,
2013-08-20 20:15:00,67.9,56.1,29.99,North,0,0.0,0.0,66,0.00,,,0.00,WUHU216HW,2013-08-21 00:15:00,
2013-08-20 20:20:00,67.5,55.3,29.98,North,0,0.0,0.0,65,0.00,,,0.00,WUHU216HW,2013-08-21 00:20:00,
2013-08-20 20:25:00,67.3,54.7,29.99,North,0,0.0,0.0,64,0.00,,,0.00,WUHU216HW,2013-08-21 00:25:00,
2013-08-20 20:31:00,67.1,54.6,29.99,North,0,0.0,0.0,64,0.00,,,0.00,WUHU216HW,2013-08-21 00:31:00,
2013-08-20 20:36:00,67.0,54.8,29.99,North,0,0.0,0.0,65,0.00,,,0.00,WUHU216HW,2013-08-21 00:36:00,
2013-08-20 20:41:00,67.0,54.8,29.99,North,0,0.0,0.0,65,0.00,,,0.00,WUHU216HW,2013-08-21 00:41:00,
2013-08-20 20:46:00,66.8,54.6,29.99,North,0,0.0,0.0,65,0.00,,,0.00,WUHU216HW,2013-08-21 00:46:00,
2013-08-20 20:51:00,66.6,54.5,30.00,North,0,0.0,0.0,65,0.00,,,0.00,WUHU216HW,2013-08-21 00:51:00,
2013-08-20 20:56:00,66.1,48.4,29.99,North,0,0.0,0.0,53,0.00,,,0.00,WUHU216HW,2013-08-21 00:56:00,
2013-08-20 21:01:00,65.9,49.2,30.00,North,0,0.0,0.0,55,0.00,,,0.00,WUHU216HW,2013-08-21 01:01:00,
2013-08-20 21:06:00,65.7,49.1,30.00,North,0,0.0,0.0,55,0.00,,,0.00,WUHU216HW,2013-08-21 01:06:00,
2013-08-20 21:11:00,65.5,46.9,30.00,North,0,0.0,0.0,51,0.00,,,0.00,WUHU216HW,2013-08-21 01:11:00,
2013-08-20 21:16:00,65.3,47.3,30.00,North,0,0.0,0.0,52,0.00,,,0.00,WUHU216HW,2013-08-21 01:16:00,
2013-08-20 21:21:00,65.2,47.5,30.01,North,0,0.0,0.0,53,0.00,,,0.00,WUHU216HW,2013-08-21 01:21:00,
2013-08-20 21:26:00,65.0,45.4,30.01,North,0,0.0,0.0,49,0.00,,,0.00,WUHU216HW,2013-08-21 01:26:00,
2013-08-20 21:31:00,64.8,45.2,30.01,North,0,0.0,0.0,49,0.00,,,0.00,WUHU216HW,2013-08-21 01:31:00,
2013-08-20 21:36:00,64.8,45.2,30.01,North,0,0.0,0.0,49,0.00,,,0.00,WUHU216HW,2013-08-21 01:36:00,
2013-08-20 21:41:00,64.4,43.7,30.01,North,0,0.0,0.0,47,0.00,,,0.00,WUHU216HW,2013-08-21 01:41:00,
2013-08-20 21:46:00,64.4,40.8,30.01,North,0,0.0,0.0,42,0.00,,,0.00,WUHU216HW,2013-08-21 01:46:00,
2013-08-20 21:51:00,64.3,40.6,30.01,North,0,0.0,0.0,42,0.00,,,0.00,WUHU216HW,2013-08-21 01:51:00,
2013-08-20 21:56:00,64.1,41.1,30.01,North,0,0.0,0.0,43,0.00,,,0.00,WUHU216HW,2013-08-21 01:56:00,
2013-08-20 22:01:00,63.9,42.0,30.01,North,0,0.0,0.0,45,0.00,,,0.00,WUHU216HW,2013-08-21 02:01:00,
2013-08-20 22:06:00,63.7,43.0,30.01,North,0,0.0,0.0,47,0.00,,,0.00,WUHU216HW,2013-08-21 02:06:00,
2013-08-20 22:11:00,63.5,42.9,30.01,North,0,0.0,0.0,47,0.00,,,0.00,WUHU216HW,2013-08-21 02:11:00,
2013-08-20 22:16:00,63.4,41.0,30.01,North,0,0.0,0.0,44,0.00,,,0.00,WUHU216HW,2013-08-21 02:16:00,
2013-08-20 22:21:00,63.4,39.3,30.01,North,0,0.0,0.0,41,0.00,,,0.00,WUHU216HW,2013-08-21 02:21:00,
2013-08-20 22:26:00,63.2,37.7,30.01,North,0,0.0,0.0,39,0.00,,,0.00,WUHU216HW,2013-08-21 02:26:00,
2013-08-20 22:31:00,63.0,36.2,30.01,North,0,0.0,0.0,37,0.00,,,0.00,WUHU216HW,2013-08-21 02:31:00,
2013-08-20 22:36:00,62.8,35.3,30.01,North,0,0.0,0.0,36,0.00,,,0.00,WUHU216HW,2013-08-21 02:36:00,
2013-08-20 22:41:00,62.6,33.7,30.01,North,0,0.0,0.0,34,0.00,,,0.00,WUHU216HW,2013-08-21 02:41:00,
2013-08-20 22:46:00,62.6,30.8,30.01,North,0,0.0,0.0,30,0.00,,,0.00,WUHU216HW,2013-08-21 02:46:00,
2013-08-20 22:51:00,62.5,27.7,30.01,North,0,0.0,0.0,27,0.00,,,0.00,WUHU216HW,2013-08-21 02:51:00,
2013-08-20 22:56:00,62.5,27.7,30.01,North,0,0.0,0.0,27,0.00,,,0.00,WUHU216HW,2013-08-21 02:56:00,
2013-08-20 23:01:00,62.1,33.2,30.01,North,0,0.0,0.0,34,0.00,,,0.00,WUHU216HW,2013-08-21 03:01:00,
2013-08-20 23:06:00,62.1,33.2,30.02,North,0,0.0,0.0,34,0.00,,,0.00,WUHU216HW,2013-08-21 03:06:00,
2013-08-20 23:11:00,61.9,34.5,30.02,North,0,0.0,0.0,36,0.00,,,0.00,WUHU216HW,2013-08-21 03:11:00,
2013-08-20 23:16:00,61.7,35.0,30.01,North,0,0.0,0.0,37,0.00,,,0.00,WUHU216HW,2013-08-21 03:16:00,
2013-08-20 23:21:00,61.7,34.3,30.02,North,0,0.0,0.0,36,0.00,,,0.00,WUHU216HW,2013-08-21 03:21:00,
2013-08-20 23:26:00,61.6,32.0,30.02,North,0,0.0,0.0,33,0.00,,,0.00,WUHU216HW,2013-08-21 03:26:00,
2013-08-20 23:31:00,61.6,30.5,30.02,North,0,0.0,0.0,31,0.00,,,0.00,WUHU216HW,2013-08-21 03:31:00,
2013-08-20 23:36:00,61.6,30.5,30.02,North,0,0.0,0.0,31,0.00,,,0.00,WUHU216HW,2013-08-21 03:36:00,
2013-08-20 23:41:00,61.4,30.3,30.02,North,0,0.0,0.0,31,0.00,,,0.00,WUHU216HW,2013-08-21 03:41:00,
2013-08-20 23:46:00,61.2,26.7,30.03,North,0,0.0,0.0,27,0.00,,,0.00,WUHU216HW,2013-08-21 03:46:00,
2013-08-20 23:51:00,61.2,21.8,30.02,North,0,0.0,0.0,22,0.00,,,0.00,WUHU216HW,2013-08-21 03:51:00,
2013-08-20 23:56:00,61.0,20.7,30.03,North,0,0.0,0.0,21,0.00,,,0.00,WUHU216HW,2013-08-21 03:56:00,